| time (UTC) | temp C | wind direction | speed KPH | gust KPH | rain 1hr cm | rain 24hr cm | rain mn cm | humidity % | barometer mb |
| 20260505184225 | 27 | 0 | 0.0 | 0.0 | 0.00 | 0.00 | 0.00 | 87 | 926.4 |
| 20260505182725 | 27 | 0 | 0.0 | 0.0 | 0.00 | 0.00 | 0.00 | 87 | 926.4 |
| 20260505181225 | 27 | 0 | 0.0 | 0.0 | 0.00 | 0.00 | 0.00 | 86 | 926.4 |
| 20260505175725 | 27 | 0 | 0.0 | 0.0 | 0.00 | 0.00 | 0.00 | 87 | 926.4 |
| 20260505174225 | 27 | 0 | 0.0 | 0.0 | 0.00 | 0.00 | 0.00 | 86 | 926.5 |
| 20260505172725 | 29 | 0 | 0.0 | 0.0 | 0.00 | 0.00 | 0.00 | 84 | 926.5 |
| 20260505171225 | 29 | 0 | 0.0 | 0.0 | 0.00 | 0.00 | 0.00 | 87 | 926.6 |
| 20260505165725 | 28 | 0 | 0.0 | 0.0 | 0.00 | 0.00 | 0.00 | 89 | 926.7 |
| 20260505164225 | 27 | 0 | 0.0 | 0.0 | 0.00 | 0.00 | 0.00 | 92 | 926.9 |
| 20260505162725 | 27 | 0 | 0.0 | 0.0 | 0.00 | 0.00 | 0.00 | 90 | 927.1 |
| 20260505161225 | 28 | 0 | 0.0 | 0.0 | 0.00 | 0.00 | 0.00 | 90 | 927.3 |
| 20260505152725 | 27 | 0 | 0.0 | 0.0 | 0.00 | 0.00 | 0.00 | 96 | 927.7 |
| 20260505151225 | 27 | 0 | 0.0 | 0.0 | 0.00 | 0.00 | 0.00 | 96 | 927.9 |
| 20260505124225 | 23 | 0 | 0.0 | 0.0 | 0.00 | 0.00 | 0.00 | 98 | 928.7 |
| 20260505122725 | 23 | 0 | 0.0 | 0.0 | 0.00 | 0.00 | 0.00 | 98 | 928.6 |
| 20260505121225 | 22 | 0 | 0.0 | 0.0 | 0.00 | 0.00 | 0.00 | 98 | 928.6 |
| 20260505115725 | 22 | 0 | 0.0 | 0.0 | 0.00 | 0.00 | 0.00 | 98 | 928.4 |
| 20260505114225 | 22 | 0 | 0.0 | 0.0 | 0.00 | 0.00 | 0.00 | 98 | 928.3 |
| 20260505112725 | 21 | 0 | 0.0 | 0.0 | 0.00 | 0.00 | 0.00 | 98 | 928.3 |
| 20260505111225 | 22 | 0 | 0.0 | 0.0 | 0.00 | 0.00 | 0.00 | 98 | 927.9 |
| 20260505101225 | 21 | 0 | 0.0 | 0.0 | 0.00 | 0.00 | 0.00 | 98 | 927.5 |
| 20260505095725 | 21 | 0 | 0.0 | 0.0 | 0.00 | 0.00 | 0.00 | 98 | 927.3 |
| 20260505094225 | 21 | 0 | 0.0 | 0.0 | 0.00 | 0.00 | 0.00 | 98 | 927.2 |
| 20260505092725 | 21 | 0 | 0.0 | 0.0 | 0.00 | 0.00 | 0.00 | 98 | 927.1 |
| 20260505091225 | 21 | 0 | 0.0 | 0.0 | 0.00 | 0.00 | 0.00 | 98 | 926.8 |
| 20260505085725 | 21 | 0 | 0.0 | 0.0 | 0.00 | 0.00 | 0.00 | 98 | 926.7 |
| 20260505084225 | 21 | 0 | 0.0 | 0.0 | 0.00 | 0.00 | 0.00 | 98 | 926.6 |
| 20260505082725 | 21 | 0 | 0.0 | 0.0 | 0.00 | 0.00 | 0.00 | 98 | 926.3 |
| 20260505081225 | 21 | 0 | 0.0 | 0.0 | 0.00 | 0.00 | 0.00 | 98 | 926.2 |
| 20260505075725 | 21 | 0 | 0.0 | 0.0 | 0.00 | 0.00 | 0.00 | 98 | 926.1 |
| 20260505074225 | 21 | 0 | 0.0 | 0.0 | 0.00 | 0.00 | 0.00 | 98 | 926.2 |
| 20260505072725 | 21 | 0 | 0.0 | 0.0 | 0.00 | 0.00 | 0.00 | 98 | 926.2 |
| 20260505071225 | 20 | 0 | 0.0 | 0.0 | 0.00 | 0.00 | 0.00 | 98 | 926.4 |
| 20260505065725 | 21 | 0 | 0.0 | 0.0 | 0.00 | 0.00 | 0.00 | 98 | 926.5 |
| 20260505064225 | 21 | 0 | 0.0 | 0.0 | 0.00 | 0.00 | 0.00 | 98 | 926.6 |
| 20260505062725 | 20 | 0 | 0.0 | 0.0 | 0.00 | 0.00 | 0.00 | 98 | 926.6 |
| 20260505061225 | 21 | 0 | 0.0 | 0.0 | 0.00 | 0.00 | 0.00 | 98 | 926.7 |
| 20260505055724 | 21 | 0 | 0.0 | 0.0 | 0.00 | 0.00 | 0.00 | 98 | 926.6 |
| 20260505054224 | 21 | 0 | 0.0 | 0.0 | 0.00 | 0.00 | 0.00 | 98 | 926.7 |
| 20260505052724 | 21 | 0 | 0.0 | 0.0 | 0.00 | 0.00 | 0.00 | 98 | 926.7 |
| 20260505051224 | 21 | 0 | 0.0 | 0.0 | 0.00 | 0.00 | 0.00 | 98 | 926.8 |
| 20260505041224 | 21 | 0 | 0.0 | 0.0 | 0.00 | 0.00 | 0.00 | 98 | 927.1 |
| 20260505035724 | 21 | 0 | 0.0 | 0.0 | 0.00 | 0.00 | 0.00 | 98 | 927.3 |
| 20260505034224 | 21 | 0 | 0.0 | 0.0 | 0.00 | 0.00 | 0.00 | 98 | 927.3 |
| 20260505032724 | 21 | 0 | 0.0 | 0.0 | 0.00 | 0.00 | 0.00 | 98 | 927.2 |
| 20260505031224 | 21 | 0 | 0.0 | 0.0 | 0.00 | 0.00 | 0.00 | 98 | 927.2 |
| 20260505025724 | 21 | 0 | 0.0 | 0.0 | 0.00 | 0.00 | 0.00 | 98 | 927.2 |
| 20260505024224 | 21 | 0 | 0.0 | 0.0 | 0.00 | 0.00 | 0.00 | 98 | 927.2 |
| 20260505022724 | 21 | 0 | 0.0 | 0.0 | 0.00 | 0.00 | 0.00 | 98 | 927.1 |
| 20260505021224 | 21 | 0 | 0.0 | 0.0 | 0.00 | 0.00 | 0.00 | 98 | 927.2 |
| 20260505015724 | 21 | 0 | 0.0 | 0.0 | 0.00 | 0.00 | 0.00 | 98 | 927.3 |
| 20260505014224 | 21 | 0 | 0.0 | 0.0 | 0.00 | 0.00 | 0.00 | 98 | 927.2 |
| 20260505012724 | 20 | 0 | 0.0 | 0.0 | 0.00 | 0.00 | 0.00 | 98 | 927.2 |
| 20260505011224 | 21 | 0 | 0.0 | 0.0 | 0.00 | 0.00 | 0.00 | 98 | 927.2 |
| 20260505005724 | 20 | 0 | 0.0 | 0.0 | 0.00 | 0.00 | 0.00 | 98 | 927.2 |
| 20260505004224 | 20 | 0 | 0.0 | 0.0 | 0.00 | 0.00 | 0.00 | 98 | 927.1 |
| 20260505002724 | 20 | 0 | 0.0 | 0.0 | 0.00 | 0.00 | 0.00 | 98 | 927.2 |
| 20260505001224 | 19 | 0 | 0.0 | 0.0 | 0.00 | 0.00 | 0.00 | 98 | 927.1 |
| 20260504235724 | 18 | 0 | 0.0 | 0.0 | 0.00 | 0.00 | 0.00 | 98 | 927.1 |
| 20260504234224 | 18 | 0 | 0.0 | 0.0 | 0.00 | 0.00 | 0.00 | 98 | 927.0 |
| 20260504232724 | 19 | 0 | 0.0 | 0.0 | 0.00 | 0.00 | 0.00 | 98 | 926.9 |
| 20260504231224 | 19 | 0 | 0.0 | 0.0 | 0.00 | 0.00 | 0.00 | 98 | 926.8 |
| 20260504225724 | 18 | 0 | 0.0 | 0.0 | 0.00 | 0.00 | 0.00 | 98 | 926.5 |
| 20260504224224 | 18 | 0 | 0.0 | 0.0 | 0.00 | 0.00 | 0.00 | 98 | 926.4 |
| 20260504222724 | 19 | 0 | 0.0 | 0.0 | 0.00 | 0.00 | 0.00 | 98 | 926.2 |
| 20260504221224 | 19 | 0 | 0.0 | 0.0 | 0.00 | 0.00 | 0.00 | 98 | 926.2 |
| 20260504215724 | 20 | 0 | 0.0 | 0.0 | 0.00 | 0.00 | 0.00 | 98 | 925.9 |
| 20260504214224 | 19 | 0 | 0.0 | 0.0 | 0.00 | 0.00 | 0.00 | 98 | 925.7 |
| 20260504212724 | 20 | 0 | 0.0 | 0.0 | 0.00 | 0.00 | 0.00 | 98 | 925.6 |
| 20260504211224 | 20 | 0 | 0.0 | 0.0 | 0.00 | 0.00 | 0.00 | 98 | 925.4 |
| 20260504205724 | 20 | 0 | 0.0 | 0.0 | 0.00 | 0.00 | 0.00 | 98 | 925.3 |
| 20260504204224 | 20 | 0 | 0.0 | 0.0 | 0.00 | 0.00 | 0.00 | 98 | 925.3 |
| 20260504202724 | 21 | 0 | 0.0 | 0.0 | 0.00 | 0.00 | 0.00 | 98 | 925.3 |
| 20260504201224 | 21 | 0 | 0.0 | 0.0 | 0.00 | 0.00 | 0.00 | 98 | 925.3 |
| 20260504195724 | 21 | 0 | 0.0 | 0.0 | 0.00 | 0.00 | 0.00 | 98 | 925.0 |
| 20260504194224 | 22 | 0 | 0.0 | 0.0 | 0.00 | 0.00 | 0.00 | 98 | 925.1 |
| 20260504192725 | 23 | 0 | 0.0 | 0.0 | 0.00 | 0.00 | 0.00 | 98 | 925.0 |
| 20260504191225 | 25 | 0 | 0.0 | 0.0 | 0.00 | 0.00 | 0.00 | 98 | 924.6 |
| 20260504185724 | 25 | 0 | 0.0 | 0.0 | 0.00 | 0.00 | 0.00 | 98 | 924.4 |